Fulton, NY

7:49 AM EDT on July 25, 2017 (GMT -0400)
Oswego County

Weather History for KFZY - January, 2014

Change the Weather History Date:

Monday, January 20, 2014

  Actual Average (KSYR) Record (KSYR)
Temperature  
Mean Temperature 18 °F -  
Max Temperature 30 °F 30 °F 61 °F (1951)
Min Temperature 6 °F 14 °F -9 °F (1983)
Degree Days  
Heating Degree Days 46    
Moisture  
Dew Point 13 °F    
Average Humidity 78    
Maximum Humidity 88    
Minimum Humidity 67    
Precipitation  
Precipitation 0.03 in - - ()
Sea Level Pressure  
Sea Level Pressure 29.70 in    
Wind  
Wind Speed 11 mph (North)    
Max Wind Speed 18 mph    
Max Gust Speed 30 mph    
Visibility 4 miles    
Events Fog , Snow    
Averages and records for this station are not official NWS values.
T = Trace of Precipitation, MM = Missing Value Source: NWS Daily Summary

Daily Weather History Graph

Daily Weather History Graph

Search for Another Location

Airport or City:

Trip Planner

Search our weather history database for the weather conditions in past years. The results will help you decide how hot, cold, wet, or windy it might be!

Date:

Astronomy

Jan. 20, 2014 Rise Set
Actual Time 7:32 AM EST 5:01 PM EST
Civil Twilight 7:00 AM EST 5:32 PM EST
Nautical Twilight 6:25 AM EST 6:07 PM EST
Astronomical Twilight 5:51 AM EST 6:41 PM EST
Moon 9:43 PM EST (1/20) 9:22 AM EST (1/20)
Length of Visible Light 10h 32m
Length of Day
9h 29m
Waning Gibbous, 83% of the Moon is Illuminated
Jan 20
Waning Gibbous
Jan 24
Last Quarter
Jan 30
New
Feb 6
First Quarter
Feb 14
Full

Hourly Weather History & Observations

Time (EST) Temp. Windchill Dew Point Humidity Pressure Visibility Wind Dir Wind Speed Gust Speed Precip Events Conditions
12:54 AM 30.0 °F 19.5 °F 21.9 °F 72% 29.52 in 10.0 mi WSW 13.8 mph 25.3 mph N/A   Overcast
1:08 AM 30.2 °F 18.5 °F 21.2 °F 69% 29.50 in 8.0 mi WSW 17.3 mph 29.9 mph N/A   Overcast
1:54 AM 30.9 °F 19.1 °F 21.0 °F 67% 29.52 in 10.0 mi WSW 18.4 mph 23.0 mph N/A   Overcast
2:54 AM 30.9 °F 21.7 °F 21.9 °F 69% 29.53 in 10.0 mi WSW 11.5 mph 18.4 mph N/A   Overcast
3:54 AM 30.9 °F 21.2 °F 23.0 °F 72% 29.52 in 9.0 mi WSW 12.7 mph - 0.00 in   Overcast
4:54 AM 30.9 °F 22.8 °F 24.1 °F 76% 29.52 in 4.0 mi WSW 9.2 mph - 0.00 in Snow Light Snow
5:47 AM 30.2 °F 21.9 °F 24.8 °F 80% 29.50 in 2.5 mi WSW 9.2 mph - 0.01 in Snow Light Snow
5:54 AM 30.0 °F 21.7 °F 25.0 °F 82% 29.52 in 2.0 mi WSW 9.2 mph - 0.01 in Snow Light Snow
6:15 AM 30.2 °F 22.6 °F 26.6 °F 86% 29.51 in 3.0 mi WSW 8.1 mph - 0.00 in Snow Light Snow
6:47 AM 30.2 °F 21.9 °F 26.6 °F 86% 29.51 in 2.5 mi WSW 9.2 mph - 0.00 in Snow Light Snow
6:54 AM 30.0 °F 21.7 °F 26.1 °F 85% 29.53 in 1.8 mi WSW 9.2 mph - 0.01 in Snow Light Snow
7:13 AM 30.2 °F 20.8 °F 26.6 °F 86% 29.52 in 1.0 mi NW 11.5 mph - 0.00 in Snow Light Snow
7:20 AM 28.4 °F 20.4 °F 24.8 °F 86% 29.52 in 0.5 mi NW 8.1 mph - 0.00 in Fog , Snow Snow
7:32 AM 28.4 °F 21.2 °F 24.8 °F 86% 29.53 in 1.0 mi NNW 6.9 mph - 0.00 in Snow Light Snow
7:54 AM 26.1 °F 16.2 °F 23.0 °F 88% 29.55 in 1.0 mi North 10.4 mph - 0.01 in Snow Light Snow
8:01 AM 24.8 °F 14.6 °F 21.2 °F 86% 29.54 in 1.5 mi North 10.4 mph - 0.00 in Snow Light Snow
8:10 AM 24.8 °F 15.3 °F 21.2 °F 86% 29.55 in 1.2 mi North 9.2 mph - 0.00 in Snow Light Snow
8:25 AM 24.8 °F 14.6 °F 19.4 °F 80% 29.55 in 2.0 mi North 10.4 mph - 0.00 in Snow Light Snow
8:47 AM 21.2 °F 11.7 °F 17.6 °F 86% 29.57 in 1.5 mi North 8.1 mph - 0.00 in Snow Light Snow
8:54 AM 21.9 °F 12.5 °F 18.0 °F 85% 29.59 in 1.5 mi North 8.1 mph - 0.00 in Snow Light Snow
9:47 AM 21.2 °F 9.5 °F 15.8 °F 80% 29.59 in 1.8 mi North 11.5 mph - 0.00 in Snow Light Snow
9:54 AM 21.0 °F 9.9 °F 16.0 °F 81% 29.61 in 1.8 mi North 10.4 mph - 0.00 in Snow Light Snow
10:02 AM 19.4 °F 7.9 °F 15.8 °F 86% 29.60 in 1.8 mi North 10.4 mph - 0.00 in Snow Light Snow
10:11 AM 19.4 °F 6.0 °F 15.8 °F 86% 29.61 in 2.0 mi North 13.8 mph - 0.00 in Snow Light Snow
10:54 AM 19.9 °F 9.3 °F 14.0 °F 78% 29.64 in 2.5 mi North 9.2 mph - 0.00 in Snow Light Snow
11:01 AM 19.4 °F 7.2 °F 14.0 °F 80% 29.62 in 3.0 mi North 11.5 mph - 0.00 in Snow Light Snow
11:32 AM 19.4 °F 7.9 °F 12.2 °F 74% 29.62 in 9.0 mi North 10.4 mph - 0.00 in   Overcast
11:39 AM 19.4 °F 7.2 °F 12.2 °F 74% 29.62 in 10.0 mi NNW 11.5 mph - 0.00 in   Overcast
11:54 AM 19.0 °F 10.0 °F 12.9 °F 77% 29.65 in 10.0 mi North 6.9 mph 16.1 mph 0.00 in   Overcast
12:04 PM 19.4 °F 7.9 °F 12.2 °F 74% 29.63 in 10.0 mi North 10.4 mph - N/A   Overcast
12:23 PM 17.6 °F 5.7 °F 12.2 °F 79% 29.65 in 10.0 mi North 10.4 mph - N/A   Overcast
12:54 PM 17.1 °F 3.6 °F 10.9 °F 77% 29.68 in 8.0 mi North 12.7 mph - 0.00 in Snow Light Snow
1:09 PM 17.6 °F 5.0 °F 10.4 °F 73% 29.67 in 1.8 mi North 11.5 mph - 0.00 in Snow Light Snow
1:29 PM 17.6 °F 5.7 °F 10.4 °F 73% 29.68 in 2.0 mi North 10.4 mph - 0.00 in Snow Light Snow
1:36 PM 17.6 °F 4.3 °F 10.4 °F 73% 29.68 in 1.8 mi North 12.7 mph - 0.00 in Snow Light Snow
1:47 PM 17.6 °F 5.7 °F 10.4 °F 73% 29.69 in 2.5 mi NNW 10.4 mph - 0.00 in Snow Light Snow
1:54 PM 17.1 °F 4.3 °F 10.0 °F 74% 29.72 in 3.0 mi NNW 11.5 mph - 0.00 in Snow Light Snow
2:05 PM 17.6 °F 5.0 °F 10.4 °F 73% 29.70 in 2.5 mi North 11.5 mph - 0.00 in Snow Light Snow
2:13 PM 15.8 °F 2.7 °F 8.6 °F 73% 29.70 in 3.0 mi North 11.5 mph - 0.00 in Snow Light Snow
2:18 PM 15.8 °F 3.4 °F 8.6 °F 73% 29.70 in 2.5 mi North 10.4 mph - 0.00 in Snow Light Snow
2:27 PM 15.8 °F 4.2 °F 8.6 °F 73% 29.71 in 1.2 mi North 9.2 mph - 0.00 in Snow Light Snow
2:54 PM 15.1 °F 3.3 °F 8.1 °F 74% 29.75 in 1.8 mi North 9.2 mph - 0.00 in Snow Light Snow
3:10 PM 15.8 °F 2.7 °F 8.6 °F 73% 29.75 in 2.0 mi North 11.5 mph - 0.00 in Snow Light Snow
3:18 PM 15.8 °F 2.7 °F 6.8 °F 68% 29.75 in 1.8 mi North 11.5 mph - 0.00 in Snow Light Snow
3:25 PM 15.8 °F 3.4 °F 6.8 °F 68% 29.76 in 3.0 mi North 10.4 mph - 0.00 in Snow Light Snow
3:35 PM 15.8 °F 3.4 °F 6.8 °F 68% 29.77 in 3.0 mi North 10.4 mph - 0.00 in Snow Light Snow
3:50 PM 14.0 °F 1.2 °F 6.8 °F 73% 29.78 in 1.8 mi North 10.4 mph - 0.00 in Snow Light Snow
3:54 PM 14.0 °F 1.2 °F 7.0 °F 74% 29.81 in 1.5 mi North 10.4 mph - 0.00 in Snow Light Snow
4:16 PM 12.2 °F 1.7 °F 6.8 °F 79% 29.81 in 1.5 mi North 6.9 mph - 0.00 in Snow Light Snow
4:25 PM 12.2 °F 1.7 °F 6.8 °F 79% 29.81 in 1.0 mi North 6.9 mph - 0.00 in Snow Light Snow
4:32 PM 12.2 °F 1.7 °F 6.8 °F 79% 29.82 in 0.5 mi North 6.9 mph - 0.00 in Snow Snow
4:50 PM 12.2 °F 1.7 °F 8.6 °F 85% 29.83 in 1.2 mi North 6.9 mph - 0.00 in Snow Light Snow
4:51 PM 12.9 °F 2.6 °F 8.1 °F 81% 29.86 in 1.2 mi North 6.9 mph - 0.00 in Snow Light Snow
5:02 PM 12.2 °F 2.9 °F 8.6 °F 85% 29.84 in 1.8 mi NNE 5.8 mph - 0.00 in Snow Light Snow
5:09 PM 12.2 °F 4.3 °F 8.6 °F 85% 29.85 in 2.0 mi North 4.6 mph - 0.00 in Snow Light Snow
5:38 PM 12.2 °F 2.9 °F 6.8 °F 79% 29.87 in 3.0 mi North 5.8 mph - 0.00 in Snow Light Snow
5:54 PM 12.9 °F 3.8 °F 7.0 °F 77% 29.90 in 3.0 mi North 5.8 mph - 0.00 in Snow Light Snow
6:03 PM 12.2 °F 4.3 °F 6.8 °F 79% 29.88 in 2.0 mi NNE 4.6 mph - 0.00 in Snow Light Snow
6:54 PM 12.0 °F 5.9 °F 6.1 °F 77% 29.93 in 2.0 mi NE 3.5 mph - 0.00 in Snow Light Snow
7:03 PM 12.2 °F 6.1 °F 6.8 °F 79% 29.91 in 1.5 mi NE 3.5 mph - 0.00 in Snow Light Snow
7:18 PM 10.4 °F 4.0 °F 5.0 °F 79% 29.91 in 2.5 mi ENE 3.5 mph - 0.00 in Snow Light Snow
7:26 PM 10.4 °F 4.0 °F 5.0 °F 79% 29.91 in 3.0 mi ENE 3.5 mph - 0.00 in Snow Light Snow
7:54 PM 9.0 °F 0.6 °F 3.0 °F 77% 29.95 in 9.0 mi East 4.6 mph - 0.00 in Snow Light Snow
8:54 PM 8.1 °F 1.4 °F -0.0 °F 70% 29.99 in 10.0 mi East 3.5 mph - 0.00 in   Overcast
9:54 PM 8.1 °F -0.5 °F -0.0 °F 70% 30.02 in 10.0 mi East 4.6 mph - N/A   Overcast
10:54 PM 7.0 °F -1.7 °F -0.9 °F 70% 30.04 in 4.0 mi ENE 4.6 mph - 0.00 in Snow Light Snow
11:54 PM 6.1 °F -2.8 °F -0.9 °F 73% 30.04 in 4.0 mi ENE 4.6 mph - 0.00 in Snow Light Snow